Date String (YYYY-MM-DD hh:mm:ss) UTC,Instrument flags,absolute air pressure of the measurement (hPa),sample flow rate (lpm),inlet stack bypass flow (lpm),air temperature of the measurement (°C),ambient temperature measured by the external sensor (°C),aerosol sample conditioner tube jacket temperature (°C),OPC LED temperature (°C),internal box temperature (°C),relative humidity of the measurement (%),span deviation,mass concentration of particles derived from Lorenz-Mie calculation of OPC scattering (μg/m³),mass concentration of particles derived from Lorenz-Mie calculation of OPC scattering (μg/m³),mass concentration of particles derived from Lorenz-Mie calculation of OPC scattering (μg/m³)
DateTimeUTC,F1_M11,P_M11,Q1_M11,Q2_M11,T1_M11,T2_M11,T3_M11,T4_M11,T5_M11,U1_M11,ZSPAN_M11,X2_M11,X0_M11,X1_M11
2024-05-16 09:00:00,SystemResetWarning,0828.3,4.99,000.00,025.8,025.1,000.0,034.1,027.6,024.8,0000.0,0003.26,0010.29,0002.16
2024-05-16 09:01:00,SystemResetWarning,0828.3,5.00,000.00,025.8,025.1,000.0,034.1,027.6,024.6,0000.0,0003.19,0009.70,0002.14
2024-05-16 09:02:00,SystemResetWarning,0828.2,5.00,000.00,025.8,025.1,000.0,034.1,027.6,024.4,0000.0,0003.10,0008.74,0002.10
2024-05-16 09:03:00,SystemResetWarning,0828.2,4.99,000.00,025.8,025.1,000.0,034.1,027.6,024.3,0000.0,0003.01,0008.23,0002.08
2024-05-16 09:04:00,SystemResetWarning,0828.1,4.99,000.00,025.8,025.1,000.0,034.1,027.6,024.1,0000.0,0002.96,0008.19,0002.07
2024-05-16 09:05:00,SystemResetWarning,0828.2,4.99,000.00,025.8,025.1,000.0,034.1,027.6,024.0,0000.0,0002.93,0008.10,0002.07
2024-05-16 09:06:00,SystemResetWarning,0828.2,5.00,000.00,025.8,025.1,000.0,034.1,027.6,024.0,0000.0,0002.83,0007.84,0002.07
2024-05-16 09:07:00,SystemResetWarning,0828.2,5.00,000.00,025.8,025.1,000.0,034.1,027.6,023.9,0000.0,0002.67,0007.31,0002.06
2024-05-16 09:08:00,SystemResetWarning,0828.2,5.01,000.00,025.8,025.1,000.0,034.1,027.6,023.9,0000.0,0002.58,0005.99,0002.07
2024-05-16 09:09:00,SystemResetWarning,0828.2,5.00,000.00,025.8,025.1,000.0,034.1,027.6,024.0,0000.0,0002.52,0005.64,0002.07
2024-05-16 09:10:00,SystemResetWarning,0828.2,5.00,000.00,025.8,025.1,000.0,034.1,027.6,024.2,0000.0,0002.52,0005.53,0002.08
2024-05-16 09:11:00,SystemResetWarning,0828.2,5.00,000.00,025.8,025.1,000.0,034.1,027.6,024.5,0000.0,0002.53,0005.44,0002.08
2024-05-16 09:12:00,SystemResetWarning,0828.2,4.99,000.00,025.8,025.1,000.0,034.1,027.6,024.7,0000.0,0002.53,0005.47,0002.11
2024-05-16 09:13:00,SystemResetWarning,0828.2,5.01,000.00,025.8,025.1,000.0,034.1,027.6,025.4,0000.0,0002.56,0005.61,0002.14
2024-05-16 09:14:00,SystemResetWarning,0828.2,5.00,000.00,025.8,025.0,000.0,034.1,027.6,026.1,0000.0,0002.63,0005.91,0002.14
2024-05-16 09:15:00,SystemResetWarning,0828.2,5.01,000.00,025.8,025.0,000.0,034.1,027.6,026.4,0000.0,0002.62,0004.52,0002.15
2024-05-16 09:16:00,SystemResetWarning,0828.2,5.01,000.00,025.8,025.0,000.0,034.1,027.6,027.0,0000.0,0002.65,0004.55,0002.15
2024-05-16 09:17:00,SystemResetWarning,0828.2,5.00,000.00,025.8,025.0,000.0,034.1,027.5,027.3,0000.0,0002.70,0004.78,0002.15
2024-05-16 09:18:00,SystemResetWarning,0828.2,4.99,000.00,025.8,025.0,000.0,034.1,027.5,027.5,0000.0,0002.73,0004.67,0002.16
2024-05-16 09:19:00,SystemResetWarning,0828.2,4.99,000.00,025.7,025.0,000.0,034.1,027.5,027.6,0000.0,0002.77,0004.68,0002.17
2024-05-16 09:20:00,SystemResetWarning,0828.2,5.00,000.00,025.7,025.0,000.0,034.1,027.5,027.7,0000.0,0002.86,0005.15,0002.18
2024-05-16 09:21:00,SystemResetWarning,0828.2,5.00,000.00,025.7,025.0,000.0,034.1,027.5,027.9,0000.0,0002.97,0005.67,0002.20
2024-05-16 09:22:00,SystemResetWarning,0828.2,5.00,000.00,025.7,025.0,000.0,034.1,027.5,028.3,0000.0,0003.04,0005.86,0002.21
2024-05-16 09:23:00,SystemResetWarning,0828.2,5.01,000.00,025.7,025.0,000.0,034.1,027.5,027.7,0000.0,0003.08,0007.06,0002.21
2024-05-16 09:24:00,SystemResetWarning,0828.1,5.01,000.00,025.7,025.0,000.0,034.1,027.5,027.5,0000.0,0003.09,0008.04,0002.21
2024-05-16 09:25:00,SystemResetWarning,0828.1,5.00,000.00,025.7,024.9,000.0,034.1,027.5,027.2,0000.0,0003.11,0008.80,0002.22
2024-05-16 09:26:00,SystemResetWarning,0828.1,5.01,000.00,025.7,024.9,000.0,034.1,027.5,027.2,0000.0,0003.11,0009.39,0002.23
2024-05-16 09:27:00,SystemResetWarning,0828.1,4.99,000.00,025.7,024.9,000.0,034.1,027.5,027.3,0000.0,0003.11,0009.68,0002.22
2024-05-16 09:28:00,SystemResetWarning,0828.1,4.99,000.00,025.7,024.9,000.0,034.1,027.5,027.2,0000.0,0003.10,0009.63,0002.23
2024-05-16 09:29:00,SystemResetWarning,0828.1,5.01,000.00,025.7,025.0,000.0,034.1,027.5,027.2,0000.0,0003.13,0009.74,0002.23
2024-05-16 09:30:00,SystemResetWarning,0828.1,5.01,000.00,025.7,025.0,000.0,034.0,027.5,027.0,0000.0,0003.16,0009.91,0002.25
2024-05-16 09:31:00,SystemResetWarning,0828.0,5.00,000.00,025.7,025.0,000.0,034.0,027.5,026.9,0000.0,0003.17,0009.88,0002.25
2024-05-16 09:32:00,SystemResetWarning,0828.1,5.01,000.00,025.7,025.0,000.0,034.0,027.5,026.9,0000.0,0003.15,0009.71,0002.24
2024-05-16 09:33:00,SystemResetWarning,0828.0,4.99,000.00,025.7,025.0,000.0,034.0,027.5,026.9,0000.0,0003.14,0010.14,0002.24
2024-05-16 09:34:00,SystemResetWarning,0828.0,4.98,000.00,025.7,025.0,000.0,034.0,027.5,027.0,0000.0,0003.15,0009.83,0002.24
2024-05-16 09:35:00,SystemResetWarning,0828.1,5.00,000.00,025.7,025.0,000.0,034.0,027.5,026.9,0000.0,0003.15,0009.01,0002.25
2024-05-16 09:36:00,SystemResetWarning,0828.1,5.02,000.00,025.7,025.0,000.0,034.0,027.6,026.9,0000.0,0003.16,0008.40,0002.25
2024-05-16 09:37:00,SystemResetWarning,0828.1,5.00,000.00,025.7,025.0,000.0,034.0,027.6,026.9,0000.0,0003.15,0007.73,0002.24
2024-05-16 09:38:00,SystemResetWarning,0828.0,4.98,000.00,025.7,025.0,000.0,034.0,027.6,026.5,0000.0,0003.15,0007.37,0002.25
2024-05-16 09:39:00,SystemResetWarning,0828.1,5.00,000.00,025.7,025.0,000.0,034.0,027.5,026.0,0000.0,0003.12,0007.26,0002.24
2024-05-16 09:40:00,SystemResetWarning,0828.1,5.01,000.00,025.7,025.0,000.0,034.0,027.5,025.3,0000.0,0003.07,0007.01,0002.23
2024-05-16 09:41:00,SystemResetWarning,0828.0,5.01,000.00,025.7,025.0,000.0,034.1,027.5,025.2,0000.0,0002.97,0007.27,0002.19
2024-05-16 09:42:00,SystemResetWarning,0828.1,4.99,000.00,025.7,025.0,000.0,034.1,027.6,025.1,0000.0,0002.93,0007.19,0002.19
2024-05-16 09:43:00,SystemResetWarning,0828.1,4.99,000.00,025.7,025.0,000.0,034.1,027.5,025.0,0000.0,0002.94,0008.49,0002.19
2024-05-16 09:44:00,SystemResetWarning,0828.1,5.02,000.00,025.7,025.0,000.0,034.1,027.5,024.8,0000.0,0002.87,0008.39,0002.18
2024-05-16 09:45:00,SystemResetWarning,0828.0,5.00,000.00,025.7,025.0,000.0,034.0,027.5,024.7,0000.0,0002.79,0008.20,0002.17
2024-05-16 09:46:00,SystemResetWarning,0828.0,5.00,000.00,025.7,025.0,000.0,034.0,027.5,024.5,0000.0,0002.81,0008.23,0002.16
2024-05-16 09:47:00,SystemResetWarning,0828.0,5.00,000.00,025.7,025.0,000.0,034.0,027.5,024.2,0000.0,0002.73,0007.75,0002.14
2024-05-16 09:48:00,SystemResetWarning,0828.0,4.99,000.00,025.7,025.0,000.0,034.0,027.5,024.5,0000.0,0002.67,0007.67,0002.13
2024-05-16 09:49:00,SystemResetWarning,0828.0,4.98,000.00,025.7,025.0,000.0,034.0,027.5,024.4,0000.0,0002.67,0007.68,0002.12
2024-05-16 09:50:00,SystemResetWarning,0828.0,5.02,000.00,025.7,025.0,000.0,034.0,027.5,024.5,0000.0,0002.71,0007.83,0002.10
2024-05-16 09:51:00,SystemResetWarning,0828.1,5.01,000.00,025.7,025.0,000.0,034.0,027.5,024.6,0000.0,0002.68,0007.82,0002.07
2024-05-16 09:52:00,SystemResetWarning,0828.1,4.99,000.00,025.7,024.9,000.0,034.0,027.5,024.5,0000.0,0002.65,0007.37,0002.06
2024-05-16 09:53:00,SystemResetWarning,0828.1,5.00,000.00,025.7,024.9,000.0,034.0,027.5,024.4,0000.0,0002.67,0007.41,0002.05
2024-05-16 09:54:00,SystemResetWarning,0828.1,5.01,000.00,025.7,024.9,000.0,034.0,027.5,024.3,0000.0,0002.58,0004.98,0002.04
2024-05-16 09:55:00,SystemResetWarning,0828.1,5.01,000.00,025.7,025.0,000.0,034.0,027.5,024.1,0000.0,0002.59,0004.21,0002.03
2024-05-16 09:56:00,SystemResetWarning,0828.1,5.01,000.00,025.7,025.0,000.0,034.0,027.5,023.9,0000.0,0002.59,0004.67,0002.03
2024-05-16 09:57:00,SystemResetWarning,0828.1,4.98,000.00,025.7,025.0,000.0,034.0,027.5,024.0,0000.0,0002.58,0005.23,0002.02
2024-05-16 09:58:00,SystemResetWarning,0828.1,4.98,000.00,025.7,025.0,000.0,034.0,027.5,024.0,0000.0,0002.60,0005.35,0002.02
2024-05-16 09:59:00,SystemResetWarning,0828.1,5.01,000.00,025.7,025.0,000.0,034.0,027.5,023.9,0000.0,0002.56,0005.23,0002.02
